Weather Roundup
Issued by NWS Chicago, IL

Home | Current Version | Previous Version | Text Only | Print | Product List | Glossary Off
Versions: 1 2 3 4 5 6 7 8 9 10 11 12 13 14 15 16 17 18 19 20 21 22 23 24 25 26 27 28 29 30 31 32 33 34 35 36 37 38 39 40 41 42 43 44 45 46 47 48 49 50

000
NZUS59 KLOT 220108
HRRLOT

CHICAGO AREA WEATHER ROUNDUP
NATIONAL WEATHER SERVICE CHICAGO/ROMEOVILLE IL
800 PM CDT SAT APR 21 2018

NOTE: "FAIR" INDICATES FEW OR NO CLOUDS BELOW 12,000 FEET WITH NO
SIGNIFICANT WEATHER AND/OR OBSTRUCTIONS TO VISIBILITY.

* THESE STATIONS ARE NOT UNDER NWS QUALITY CONTROL. THEY ALSO MAY NOT
  REPORT WEATHER SUCH AS PRECIPITATION OR FOG.

ILZ005-006-012>014-019>023-220200-
NORTHEAST ILLINOIS

CITY           SKY/WX    TMP DP  RH WIND       PRES   REMARKS
OHARE          CLOUDY    48  17  29 E7        30.36S
MIDWAY         MOCLDY    47  17  30 E8        30.37S
AURORA           N/A     50  25  37 E9        30.35R
LANSING*         N/A     45  26  48 NE7       30.37S
JOLIET*          N/A     51  26  38 NE6       30.36R
WAUKEGAN       CLOUDY    43  24  47 SE3       30.37R
DUPAGE AIRPORT   N/A     48  22  35 E7        30.36R
WHEELING         N/A     47  18  31 NE5       30.39S
KANKAKEE*        N/A     51  32  48 E8        30.35S
MORRIS*          N/A     49  32  53 NE6       30.33F
LEWIS AIRPORT*   N/A     47  26  43 NE8       30.36R
NORTHERLY ISL    N/A     42  20  41 MISG        N/A
$$

WIZ051-052-058>065-066-070>072-220200-
SOUTHEAST WISCONSIN

CITY           SKY/WX    TMP DP  RH WIND       PRES   REMARKS
MILWAUKEE      MOCLDY    45  16  31 S3        30.39R
KENOSHA*       CLOUDY    43  24  47 E6        30.38R
RACINE*        CLOUDY    42  23  46 CALM      30.40R
BURLINGTON     CLOUDY    48  24  38 E5        30.38R
WAUKESHA       CLEAR     46  25  42 CALM      30.38R
WEST BEND        N/A     46  19  34 E3        30.38R
$$

INZ001>003-010>013-019-020-220200-
NORTHWEST INDIANA

CITY           SKY/WX    TMP DP  RH WIND       PRES   REMARKS
GARY*          CLOUDY    45  27  49 NE8       30.37S
MICHIGAN CITY* NOT AVBL
RENSSELAER*    NOT AVBL
VALPARAISO       N/A     48  32  53 N5        30.36R
$$

LMZ740>746-220200-
SOUTHERN LAKE MICHIGAN

STATION/POSITION TIME  SKY/WX   TEMP WIND        PRES    VSBY
                                AIR  DIR/SP/G
                 (UTC)          (F)  (DEG/KT/KT) (MB)    (MI)
HARRISON CRIB    0040            41   10/  1/  1   N/A
BURNHAM HARBOR   0100            42   10/  3/  4   N/A
CALUMET HARBOR   0048            41  360/  5/  6 1027.7F
BURNS HARBOR     0040            42   70/  7/  9 1028.8R
MICHIGAN CITY    0040            42   20/  7/  8   N/A
$$

ABBREVIATIONS USED IN REMARKS
   TC - TEMPERATURE IN CELSIUS
  WCI - WIND CHILL INDEX
   HX - HEAT INDEX
  VSB - VISIBILITY
$$




USA.gov is the U.S. government's official web portal to all federal, state and local government web resources and services.